Hourly Weather Roundup
Issued by NWS Central Illinois

Home | Current Version | Previous Version | Text Only | Print | Product List | Glossary On
Versions: 1 2 3 4 5 6 7 8 9 10 11 12 13 14 15 16 17 18 19 20 21 22 23 24 25 26 27 28 29 30 31 32 33 34 35 36 37 38 39 40 41 42 43 44 45 46 47 48 49 50
000
NZUS43 KILX 291610
HWRILX

AREA WEATHER ROUNDUP
NATIONAL WEATHER SERVICE, LINCOLN IL
1100 AM CDT FRI JUL 29 2016


CITY           SKY/WX    TMP DP  RH WIND       PRES   REMARKS
BLOOMINGTON    CLOUDY    76  70  82 W5        29.96S
CHAMPAIGN      CLOUDY    77  72  84 W7        29.95S
DANVILLE       CLOUDY    76  73  91 W3        29.92S
DECATUR        CLOUDY    79  68  69 NW5       29.94F HX  81
EFFINGHAM      PTSUNNY   82  74  77 W3        29.96S HX  88
FLORA          MOSUNNY   82  76  79 S3        29.95S HX  90
GALESBURG      CLOUDY    72  68  85 W7        29.96S
JACKSONVILLE   CLOUDY    76  69  79 W8        29.96S
LACON          CLOUDY    73  69  87 SW5       29.93F
LAWRENCEVILLE  MOSUNNY   81  74  79 VRB5      29.94F HX  86
LITCHFIELD     NOT AVBL
$$


CITY           SKY/WX    TMP DP  RH WIND       PRES   REMARKS
LINCOLN        CLOUDY    77  71  80 W3        29.94F
MACOMB         CLOUDY    69  68  96 W8        30.00R
MATTOON        MOSUNNY   80  71  74 W7        29.94S HX  84
MT CARMEL AP   MOSUNNY   81  73  77 S3        29.94F HX  85
OLNEY-NOBLE AP SUNNY     79  73  83 S3        29.95S HX  82
PARIS          MOSUNNY   81  74  77 CALM      29.94F HX  86
PEORIA         CLOUDY    73  69  87 W7        29.95S
PONTIAC        PTSUNNY   79  74  85 CALM      29.95S HX  83
RANTOUL        NOT AVBL
ROBINSON       SUNNY     81  73  76 CALM      29.94S HX  86
SPRINGFIELD    CLOUDY    79  69  71 W7        29.95F HX  81
TAYLORVILLE    CLOUDY    75  71  89 MISG      29.96S
$$

...REGIONAL REPORTS...


CITY           SKY/WX    TMP DP  RH WIND       PRES   REMARKS
CHICAGO O`HARE CLOUDY    79  70  74 NE8       29.94R HX  82
KANKAKEE       CLOUDY    80  72  75 S3        29.94S HX  84
MOLINE         CLOUDY    77  68  73 W7        29.94S
MOUNT STERLING PTSUNNY   75  68  79 NW7       29.98R
MOUNT VERNON   PTSUNNY   82  72  69 MISG      29.95S HX  87
PITTSFIELD     CLOUDY    76  69  80 W7        29.99R
QUINCY         MOSUNNY   76  70  82 NW8       29.98R
ROCKFORD       CLOUDY    77  68  73 NE6       29.97R
$$


CITY           SKY/WX    TMP DP  RH WIND       PRES   REMARKS
BURLINGTON     CLOUDY    69  66  90 W7        29.97S
CEDAR RAPIDS   CLOUDY    70  69  97 NW3       29.96F FOG
DES MOINES     CLOUDY    70  63  78 N12       30.00F
KIRKSVILLE     CLOUDY    77  64  64 VRB5      30.01S
OTTUMWA        CLOUDY    68  64  87 NW8       29.99S
ST LOUIS       CLOUDY    83  66  56 W3        29.96F HX  85
$$


CITY           SKY/WX    TMP DP  RH WIND       PRES   REMARKS
TERRE HAUTE    MOSUNNY   83  72  69 NE3       29.93F HX  88
EVANSVILLE     PTSUNNY   80  73  79 SW5       29.95F HX  84
INDIANAPOLIS   PTSUNNY   83  71  67 SW7       29.95S HX  87
LAFAYETTE      CLOUDY    81  72  74 S5        29.92F HX  85
MADISON        LGT RAIN  69  66  90 NE10      29.99S
MILWAUKEE      CLOUDY    73  66  78 E10       29.99R
$$





USA.gov is the U.S. government's official web portal to all federal, state and local government web resources and services.